Regional Weather Roundup
Issued by NWS

Home | Current Version | Previous Version | Graphics & Text | Print | Product List | Glossary On
Versions: 1 2 3 4 5 6 7 8 9 10 11 12 13 14 15 16 17 18 19 20 21 22 23 24 25 26 27 28 29 30 31 32 33 34 35 36 37 38 39 40 41 42 43 44 45 46 47 48 49 50
983
ASUS43 KLOT 291503
RWRIL

ILLINOIS REGIONAL WEATHER ROUNDUP
NATIONAL WEATHER SERVICE CHICAGO/ROMEOVILLE IL
1000 AM CDT FRI JUL 29 2016

NOTE: "FAIR" INDICATES FEW OR NO CLOUDS BELOW 12,000 FEET WITH NO
SIGNIFICANT WEATHER AND/OR OBSTRUCTIONS TO VISIBILITY.

* THESE STATIONS ARE NOT UNDER NWS QUALITY CONTROL. THEY ALSO MAY NOT
  REPORT WEATHER SUCH AS PRECIPITATION OR FOG.

ILZ001-002-007-009-015-016-024-291600-
NORTHWEST ILLINOIS

CITY           SKY/WX    TMP DP  RH WIND       PRES   REMARKS
MOLINE         PTSUNNY   75  68  78 SW6       29.94S
STERLING*      CLOUDY    71  69  93 NE5       29.96S FOG
SAVANNA*       CLOUDY    71  66  85 E6        29.96S
$$

ILZ003-004-008-010-011-017-018-291600-
NORTH CENTRAL ILLINOIS

CITY           SKY/WX    TMP DP  RH WIND       PRES   REMARKS
ROCKFORD       CLOUDY    74  66  76 E6        29.96S
FREEPORT*      CLOUDY    69  66  91 NE6       29.98S
ROCHELLE*      CLOUDY    73  69  89 E3        29.95S
DE KALB*       PTSUNNY   75  70  84 E6        29.96S
$$

ILZ005-006-012>014-019>023-291600-
NORTHEAST ILLINOIS

CITY           SKY/WX    TMP DP  RH WIND       PRES   REMARKS
CHICAGO-OHARE  CLOUDY    78  69  73 E5        29.92F HX  80
CHICAGO-MIDWAY PTSUNNY   81  68  64 NE5       29.92F HX  84
AURORA         PTSUNNY   77  69  76 NE3       29.94F
LANSING*       MOSUNNY   79  68  69 CALM      29.93S HX  81
WAUKEGAN       CLOUDY    74  69  85 E10       29.95S
DUPAGE AIRPORT MOSUNNY   77  69  76 E6        29.93S
KANKAKEE*      PTSUNNY   79  71  74 CALM      29.93S HX  82
WHEELING       CLOUDY    77  69  76 E6        29.94F
MORRIS*        CLOUDY    75  70  83 CALM      29.93S
NORTHERLY ISL    N/A     77  69  76 NE6         N/A
$$

LMZ740>746-291600-
SOUTHERN LAKE MICHIGAN

STATION/POSITION SKY/WX   TEMP    WIND        PRES    VSBY  WAVE
                          AIR SEA DIR/SP/G                  HT/PER
                          (F)     (DEG/KT/KT) (MB)    (MI)  (FT/S)
SOUTHERN BUOY              71 75   90/ 17/ 21 1013.2          4/ 5
WILMETTE HARBOR            74 73  120/  6/  8   N/A           2/ 6
HARRISON CRIB              75      70/  6/  6   N/A
BURNHAM HARBOR             77      50/  5/  6   N/A
CALUMET HARBOR             75      50/  3/  5 1013.1R
BURNS HARBOR               74      50/  6/  8 1013.9S
MICHIGAN CITY              72      10/  4/  4   N/A
MICHIGAN CITY 6N           73 77  100/  4/  6   N/A           1/ 6
ST. JOSEPH                 74 76   80/  6/  8 1013.4S         2
$$

ILZ025>027-034>036-040-047-049-050-058-095>099-291600-
WEST-CENTRAL ILLINOIS

CITY           SKY/WX    TMP DP  RH WIND       PRES   REMARKS
QUINCY         PTSUNNY   73  71  93 NW5       29.97S
GALESBURG*     CLOUDY    70  67  90 W3        29.96S
MACOMB*        CLOUDY    68  68  99 W7        29.99S FOG
JACKSONVILLE*  CLOUDY    73  70  89 W5        29.96F
PITTSFIELD*    CLOUDY    74  69  86 W3        29.98F
$$

ILZ028>032-037-038-041>044-048-051>054-059>061-291600-
CENTRAL ILLINOIS

CITY           SKY/WX    TMP DP  RH WIND       PRES   REMARKS
PONTIAC        CLOUDY    78  73  85 CALM      29.94S HX  81
BLOOMINGTON    CLOUDY    75  71  87 CALM      29.96R
DECATUR        CLOUDY    77  69  76 W6        29.95R
PEORIA         CLOUDY    72  70  93 NW6       29.95S
LACON*         CLOUDY    72  69  90 CALM      29.94S FOG
LINCOLN*       CLOUDY    74  71  90 CALM      29.94F
SPRINGFIELD    CLOUDY    74  70  87 CALM      29.95F
TAYLORVILLE    CLOUDY    73  71  93 MISG      29.96S
$$

ILZ033-039-045-046-055>057-062-063-291600-
EAST-CENTRAL ILLINOIS

CITY           SKY/WX    TMP DP  RH WIND       PRES   REMARKS
CHAMPAIGN      CLOUDY    76  71  85 W5        29.95R
MATTOON        MOSUNNY   78  71  79 CALM      29.94S HX  80
PARIS*         MOSUNNY   76  73  89 CALM      29.95S
$$

ILZ079-100>102-291600-
SOUTHWEST ILLINOIS

CITY           SKY/WX    TMP DP  RH WIND       PRES   REMARKS
ALTON          PTSUNNY   77  70  78 NE6       29.97S
BELLEVILLE     SUNNY     82  72  72 VRB3      29.94F HX  86
CAHOKIA*       CLOUDY    82  67  60 N3        29.96S HX  84
SPARTA*        PTSUNNY   79  72  78 CALM      29.96F HX  83
$$

ILZ064>066-069>071-074>076-080>082-084>086-088>090-092>094-291600-
SOUTH-CENTRAL ILLINOIS

CITY           SKY/WX    TMP DP  RH WIND       PRES   REMARKS
CARBONDALE     CLOUDY    79  72  79 CALM      29.95S HX  82
CAIRO*         CLOUDY    76  73  88 SW6       29.96S
EFFINGHAM*     SUNNY     80  73  78 CALM      29.96S HX  84
MARION         PTSUNNY   81  75  83 SW6       29.96R HX  86
MT. VERNON     MOSUNNY   79  70  73 MISG      29.95F HX  81
CENTRALIA*     SUNNY     81  74  81 CALM      29.95S HX  86
SALEM*         SUNNY     82  73  74 CALM      29.95S HX  86
METROPOLIS*    CLOUDY    79  73  81 SW5       29.97R HX  83
$$

ILZ067-068-072-073-078-083-087-091-291600-
SOUTHEAST ILLINOIS

CITY           SKY/WX    TMP DP  RH WIND       PRES   REMARKS
LAWRENCEVILLE  MOSUNNY   78  72  81 SW3       29.95R HX  80
FLORA*         MOSUNNY   79  74  86 CALM      29.95F HX  82
FAIRFIELD*     CLOUDY    77  73  86 CALM      29.94S
HARRISBURG*    PTSUNNY   80  75  86 SW5       29.96S HX  84
ROBINSON*      SUNNY     77  72  86 CALM      29.96R
CARMI*         MOSUNNY   78  74  87 CALM      29.94S HX  81
$$

ABBREVIATIONS USED IN REMARKS
   TC - TEMPERATURE IN CELSIUS
  WCI - WIND CHILL INDEX
   HX - HEAT INDEX
  VSB - VISIBILITY
$$





USA.gov is the U.S. government's official web portal to all federal, state and local government web resources and services.